• In Uzbekistan
  • List of Countries
  • For 7 days
  • Water Temperature
  • Satellite Maps
  • Weather Map
  • Weather Widgets
  • user-avatar
    Login

    Hourly Weather Melbourne

    Today, 26 April, Wednesday

    Time Temperature Precipitation Wind Pressure Humidity
    00:00 +13°C° 0.1 mm 3 mps 752 mmHg 93%
    01:00 +12°C° 0.1 mm 3 mps 752 mmHg 93%
    02:00 +12°C° 0.5 mm 3 mps 752 mmHg 94%
    03:00 +12°C° 0.5 mm 4 mps 752 mmHg 94%
    04:00 +11°C° 0 mm 6 mps 752 mmHg 94%
    05:00 +10°C° 1.9 mm 5 mps 753 mmHg 94%
    06:00 +9°C° 1.9 mm 5 mps 753 mmHg 93%
    07:00 +9°C° 1.9 mm 5 mps 754 mmHg 93%
    08:00 +9°C° 0.7 mm 5 mps 755 mmHg 91%
    09:00 +9°C° 0.7 mm 5 mps 756 mmHg 89%
    10:00 +10°C° 0 mm 6 mps 757 mmHg 84%
    11:00 +10°C° 0.2 mm 6 mps 757 mmHg 77%
    12:00 +11°C° 0.2 mm 6 mps 757 mmHg 69%
    13:00 +11°C° 0.2 mm 6 mps 758 mmHg 62%
    14:00 +11°C° 0.2 mm 6 mps 758 mmHg 63%
    15:00 +10°C° 0.2 mm 5 mps 759 mmHg 64%
    16:00 +10°C° 0.2 mm 5 mps 760 mmHg 66%
    17:00 +9°C° 0.2 mm 5 mps 760 mmHg 70%
    18:00 +8°C° 0.2 mm 4 mps 761 mmHg 74%
    19:00 +8°C° 0.2 mm 4 mps 762 mmHg 79%
    20:00 +8°C° 0.2 mm 4 mps 762 mmHg 80%
    21:00 +8°C° 0.2 mm 4 mps 762 mmHg 81%
    22:00 +8°C° 0.2 mm 4 mps 762 mmHg 82%
    23:00 +8°C° 0.1 mm 4 mps 762 mmHg 82%

    Tomorrow, 27 April, Thursday

    Time Temperature Precipitation Wind Pressure Humidity
    00:00 +9°C° 0.1 mm 3 mps 763 mmHg 83%
    01:00 +9°C° 0.1 mm 3 mps 763 mmHg 83%
    02:00 +9°C° 0.1 mm 3 mps 763 mmHg 84%
    03:00 +9°C° 0.1 mm 3 mps 763 mmHg 84%
    04:00 +9°C° 0.1 mm 3 mps 764 mmHg 85%
    05:00 +9°C° 0.1 mm 3 mps 764 mmHg 85%
    06:00 +9°C° 0.1 mm 3 mps 764 mmHg 85%
    07:00 +9°C° 0.1 mm 3 mps 764 mmHg 86%
    08:00 +9°C° 0 mm 3 mps 765 mmHg 84%
    09:00 +10°C° 0 mm 3 mps 765 mmHg 82%
    10:00 +11°C° 0 mm 3 mps 765 mmHg 81%
    11:00 +11°C° 0.1 mm 3 mps 765 mmHg 79%
    12:00 +11°C° 0.1 mm 3 mps 765 mmHg 78%
    13:00 +12°C° 0.1 mm 3 mps 765 mmHg 76%
    14:00 +12°C° 0.1 mm 3 mps 765 mmHg 75%
    15:00 +12°C° 0.1 mm 3 mps 765 mmHg 74%
    16:00 +12°C° 0.1 mm 3 mps 765 mmHg 74%
    17:00 +12°C° 0 mm 3 mps 765 mmHg 78%
    18:00 +12°C° 0 mm 2 mps 765 mmHg 81%
    19:00 +10°C° 0 mm 2 mps 766 mmHg 85%
    20:00 +10°C° 0 mm 2 mps 766 mmHg 88%
    21:00 +10°C° 0 mm 2 mps 766 mmHg 90%
    22:00 +10°C° 0 mm 2 mps 766 mmHg 93%
    23:00 +9°C° 0 mm 2 mps 766 mmHg 93%

    Day after tomorrow, 28 April, Friday

    Time Temperature Precipitation Wind Pressure Humidity
    00:00 +9°C° 0 mm 2 mps 766 mmHg 94%
    01:00 +9°C° 0 mm 2 mps 766 mmHg 95%
    02:00 +9°C° 0 mm 2 mps 766 mmHg 95%
    03:00 +9°C° 0 mm 2 mps 766 mmHg 95%
    04:00 +10°C° 0 mm 2 mps 765 mmHg 95%
    05:00 +10°C° 0 mm 2 mps 766 mmHg 95%
    06:00 +10°C° 0 mm 2 mps 766 mmHg 95%
    07:00 +10°C° 0 mm 2 mps 766 mmHg 95%
    08:00 +13°C° 0 mm 2 mps 766 mmHg 90%
    09:00 +14°C° 0 mm 2 mps 766 mmHg 86%
    10:00 +16°C° 0 mm 2 mps 767 mmHg 81%
    11:00 +16°C° 0.1 mm 2 mps 766 mmHg 80%
    12:00 +17°C° 0.1 mm 2 mps 766 mmHg 79%
    13:00 +17°C° 0.1 mm 3 mps 766 mmHg 77%
    14:00 +17°C° 0.1 mm 3 mps 766 mmHg 79%
    15:00 +17°C° 0.1 mm 3 mps 766 mmHg 80%
    16:00 +17°C° 0.1 mm 3 mps 765 mmHg 81%
    17:00 +16°C° 0 mm 3 mps 766 mmHg 85%
    18:00 +15°C° 0 mm 2 mps 766 mmHg 88%
    19:00 +14°C° 0 mm 2 mps 766 mmHg 92%
    20:00 +14°C° 0 mm 2 mps 766 mmHg 92%
    21:00 +13°C° 0 mm 2 mps 766 mmHg 93%
    22:00 +12°C° 0 mm 2 mps 766 mmHg 94%
    23:00 +12°C° 0 mm 2 mps 766 mmHg 94%

    29 April, Saturday

    Time Temperature Precipitation Wind Pressure Humidity
    00:00 +12°C° 0 mm 2 mps 766 mmHg 94%
    01:00 +12°C° 0 mm 2 mps 766 mmHg 94%
    02:00 +12°C° 0 mm 2 mps 766 mmHg 95%
    03:00 +13°C° 0 mm 2 mps 765 mmHg 95%
    04:00 +13°C° 0 mm 2 mps 765 mmHg 95%
    05:00 +13°C° 0.1 mm 2 mps 765 mmHg 95%
    06:00 +13°C° 0.1 mm 2 mps 766 mmHg 96%
    07:00 +13°C° 0.1 mm 2 mps 766 mmHg 96%
    08:00 +14°C° 0.1 mm 2 mps 766 mmHg 93%
    09:00 +15°C° 0.1 mm 2 mps 766 mmHg 90%
    10:00 +17°C° 0.1 mm 3 mps 767 mmHg 87%
    11:00 +17°C° 0.2 mm 2 mps 766 mmHg 84%
    12:00 +18°C° 0.2 mm 2 mps 766 mmHg 80%
    13:00 +18°C° 0.2 mm 2 mps 766 mmHg 77%
    14:00 +18°C° 0.2 mm 2 mps 766 mmHg 79%
    15:00 +18°C° 0.2 mm 2 mps 766 mmHg 81%
    16:00 +17°C° 0.2 mm 2 mps 766 mmHg 83%
    17:00 +16°C° 0.1 mm 1 mps 766 mmHg 87%
    18:00 +15°C° 0.1 mm 1 mps 766 mmHg 91%
    19:00 +13°C° 0.1 mm 1 mps 766 mmHg 95%
    20:00 +13°C° 0.1 mm 1 mps 767 mmHg 95%
    21:00 +13°C° 0.1 mm 0 mps 767 mmHg 95%
    22:00 +13°C° 0.1 mm 0 mps 767 mmHg 95%
    23:00 +13°C° 0.1 mm 0 mps 767 mmHg 96%

    30 April, Sunday

    Time Temperature Precipitation Wind Pressure Humidity
    00:00 +14°C° 0.1 mm 1 mps 767 mmHg 96%
    01:00 +13°C° 0.1 mm 1 mps 767 mmHg 96%
    02:00 +13°C° 0.1 mm 1 mps 766 mmHg 96%
    03:00 +13°C° 0.1 mm 1 mps 766 mmHg 97%
    04:00 +13°C° 0.1 mm 1 mps 766 mmHg 97%
    05:00 +12°C° 0 mm 1 mps 766 mmHg 97%
    06:00 +12°C° 0 mm 1 mps 766 mmHg 97%
    07:00 +11°C° 0 mm 1 mps 766 mmHg 97%
    08:00 +13°C° 0 mm 1 mps 766 mmHg 93%
    09:00 +14°C° 0 mm 1 mps 766 mmHg 89%
    10:00 +16°C° 0 mm 1 mps 766 mmHg 85%
    11:00 +18°C° 0.1 mm 1 mps 766 mmHg 79%
    12:00 +18°C° 0.1 mm 1 mps 765 mmHg 74%
    13:00 +19°C° 0.1 mm 1 mps 765 mmHg 68%
    14:00 +19°C° 0 mm 1 mps 764 mmHg 67%
    15:00 +19°C° 0 mm 1 mps 764 mmHg 67%
    16:00 +19°C° 0 mm 1 mps 763 mmHg 66%
    17:00 +18°C° 0 mm 1 mps 763 mmHg 71%
    18:00 +16°C° 0 mm 1 mps 763 mmHg 76%
    19:00 +14°C° 0 mm 2 mps 763 mmHg 81%
    20:00 +14°C° 0 mm 2 mps 763 mmHg 82%
    21:00 +14°C° 0 mm 2 mps 763 mmHg 84%
    22:00 +13°C° 0 mm 2 mps 763 mmHg 86%
    23:00 +13°C° 0 mm 2 mps 762 mmHg 86%

    1 May, Monday

    Time Temperature Precipitation Wind Pressure Humidity
    00:00 +13°C° 0 mm 2 mps 762 mmHg 87%
    01:00 +13°C° 0 mm 2 mps 761 mmHg 88%
    02:00 +12°C° 0 mm 3 mps 761 mmHg 87%
    03:00 +12°C° 0 mm 3 mps 760 mmHg 87%
    04:00 +12°C° 0 mm 3 mps 760 mmHg 86%
    05:00 +12°C° 0 mm 3 mps 760 mmHg 86%
    06:00 +13°C° 0 mm 3 mps 759 mmHg 85%
    07:00 +13°C° 0 mm 4 mps 759 mmHg 84%
    08:00 +14°C° 0 mm 4 mps 759 mmHg 81%
    09:00 +15°C° 0 mm 4 mps 759 mmHg 78%
    10:00 +15°C° 0 mm 5 mps 758 mmHg 74%
    11:00 +16°C° 0.1 mm 5 mps 757 mmHg 72%
    12:00 +17°C° 0.1 mm 5 mps 757 mmHg 69%
    13:00 +17°C° 0.1 mm 5 mps 756 mmHg 67%
    14:00 +19°C° 0 mm 5 mps 755 mmHg 66%
    15:00 +19°C° 0 mm 4 mps 755 mmHg 65%
    16:00 +19°C° 0 mm 4 mps 755 mmHg 64%
    17:00 +18°C° 0.1 mm 4 mps 755 mmHg 69%
    18:00 +17°C° 0.1 mm 4 mps 755 mmHg 74%
    19:00 +15°C° 0.1 mm 4 mps 755 mmHg 79%
    20:00 +15°C° 0.6 mm 4 mps 755 mmHg 82%
    21:00 +14°C° 0.6 mm 3 mps 755 mmHg 86%
    22:00 +14°C° 0.6 mm 3 mps 755 mmHg 90%
    23:00 +14°C° 1.2 mm 3 mps 755 mmHg 91%
    Show more